Dover AFB, DE

2:00 AM EDT on April 29, 2017 (GMT -0400)
Dover Air Force Base

Weather History for KDOV - April, 2014

Change the Weather History Date:

Sunday, April 13, 2014

  Actual Average Record
Temperature  
Mean Temperature 66 °F -  
Max Temperature 81 °F 62 °F 88 °F (1977)
Min Temperature 50 °F 40 °F 28 °F (1975)
Growing Degree Days 16 (Base 50)    
Moisture  
Dew Point 56 °F    
Average Humidity 73    
Maximum Humidity 100    
Minimum Humidity 40    
Precipitation  
Precipitation 0.00 in - - ()
Sea Level Pressure  
Sea Level Pressure 30.09 in    
Wind  
Wind Speed 11 mph (South)    
Max Wind Speed 23 mph    
Max Gust Speed 30 mph    
Visibility 10 miles    
Events      
Averages and records for this station are not official NWS values.
T = Trace of Precipitation, MM = Missing Value Source: NWS Daily Summary

Daily Weather History Graph

Daily Weather History Graph

Search for Another Location

Airport or City:

Trip Planner

Search our weather history database for the weather conditions in past years. The results will help you decide how hot, cold, wet, or windy it might be!

Date:

Astronomy

Apr. 13, 2014 Rise Set
Actual Time 6:28 AM EDT 7:37 PM EDT
Civil Twilight 6:00 AM EDT 8:04 PM EDT
Nautical Twilight 5:27 AM EDT 8:37 PM EDT
Astronomical Twilight 4:53 AM EDT 9:12 PM EDT
Moon 6:13 PM EDT (4/13) 5:24 AM EDT (4/13)
Length of Visible Light 14h 04m
Length of Day
13h 09m
Waxing Gibbous, 97% of the Moon is Illuminated
Apr 13
Waxing Gibbous
Apr 15
Full
Apr 22
Last Quarter
Apr 29
New
May 6
First Quarter

Hourly Weather History & Observations

Time (EDT) Temp. Heat Index Dew Point Humidity Pressure Visibility Wind Dir Wind Speed Gust Speed Precip Events Conditions
12:58 AM 51.3 °F - 51.3 °F 100% 30.16 in 10.0 mi SE 5.8 mph - N/A   Clear
1:58 AM 50.9 °F - 50.9 °F 100% 30.15 in 10.0 mi SE 6.9 mph - N/A   Clear
2:58 AM 52.0 °F - 52.0 °F 100% 30.13 in 10.0 mi SE 8.1 mph - N/A   Clear
3:58 AM 53.6 °F - 53.6 °F 100% 30.13 in 10.0 mi SE 6.9 mph - N/A   Clear
4:58 AM 53.4 °F - 53.4 °F 100% 30.12 in 8.0 mi SSE 5.8 mph - N/A   Clear
5:58 AM 52.2 °F - 52.2 °F 100% 30.12 in 6.0 mi SSE 6.9 mph - N/A   Clear
6:58 AM 52.9 °F - 52.9 °F 100% 30.14 in 8.0 mi SSE 6.9 mph - N/A   Clear
7:58 AM 59.4 °F - 59.4 °F 100% 30.14 in 10.0 mi South 10.4 mph - N/A   Clear
8:58 AM 63.5 °F - 59.4 °F 86% 30.15 in 10.0 mi South 15.0 mph - N/A   Clear
9:58 AM 68.4 °F - 57.7 °F 69% 30.14 in 10.0 mi SSW 12.7 mph - N/A   Partly Cloudy
10:58 AM 72.7 °F - 57.4 °F 59% 30.13 in 10.0 mi South 15.0 mph - N/A   Partly Cloudy
11:58 AM 76.5 °F - 57.0 °F 51% 30.12 in 10.0 mi South 15.0 mph - N/A   Partly Cloudy
12:58 PM 78.4 °F - 56.5 °F 47% 30.10 in 10.0 mi SSW 18.4 mph 21.9 mph N/A   Scattered Clouds
1:58 PM 81.0 °F 80.7 °F 55.2 °F 41% 30.08 in 10.0 mi South 16.1 mph - N/A   Scattered Clouds
2:58 PM 80.6 °F 80.4 °F 54.0 °F 40% 30.05 in 10.0 mi South 19.6 mph 29.9 mph N/A   Partly Cloudy
3:58 PM 80.4 °F 80.3 °F 54.9 °F 41% 30.02 in 10.0 mi South 23.0 mph 27.6 mph N/A   Clear
4:58 PM 79.0 °F - 54.7 °F 43% 30.02 in 10.0 mi South 17.3 mph - N/A   Clear
5:58 PM 78.4 °F - 55.0 °F 44% 30.02 in 10.0 mi South 19.6 mph - N/A   Clear
6:58 PM 75.2 °F - 57.6 °F 54% 30.02 in 10.0 mi SSE 19.6 mph - N/A   Clear
7:58 PM 71.1 °F - 56.3 °F 60% 30.02 in 10.0 mi South 18.4 mph - N/A   Clear
8:58 PM 68.7 °F - 57.4 °F 67% 30.03 in 10.0 mi South 17.3 mph 25.3 mph N/A   Clear
9:58 PM 65.8 °F - 58.3 °F 77% 30.03 in 10.0 mi SSE 12.7 mph - N/A   Clear
10:58 PM 64.6 °F - 60.4 °F 86% 30.02 in 10.0 mi SSE 13.8 mph - N/A   Clear
11:58 PM 64.6 °F - 61.9 °F 91% 30.02 in 10.0 mi South 13.8 mph - N/A   Clear